This demonstration page uses our WeatherBlox Daily Observations layout. Learn more.

40.92945, -100.16068

Hourly Observations for January 3, 2018

Temp ( °F °C ) Dew Point ( °F °C ) Humidity (%) Winds ( mph kmh ) Pressure ( in mb ) Visibility ( mi km ) Precip ( " mm )
12:15 am 00:15 Clear 14 -10.1 8 -13.1 79 79 NW 9 15 30.45 1031 10 16.0934 0 0
12:35 am 00:35 Clear 15 -9.2 10 -12.2 79 79 WNW 12 19 30.45 1031 10 16.0934 0 0
12:55 am 00:55 Clear 16 -8.9 10 -12.1 78 78 WNW 12 19 30.45 1031 10 16.0934 0 0
1:15 am 01:15 Clear 16 -8.9 10 -12.2 77 77 WNW 13 20 30.45 1031 10 16.0934 0 0
1:35 am 01:35 Clear 17 -8.2 11 -11.7 76 76 WNW 15 24 30.42 1030 10 16.0934 0 0
1:55 am 01:55 Clear 17 -8.5 11 -11.9 77 77 NW 10 17 30.42 1030 10 16.0934 0 0
2:20 am 02:20 Clear 18 -8 12 -11.2 78 78 NNW 10 17 30.42 1030 10 16.0934 0 0
2:35 am 02:35 Clear 24 -4.7 17 -8.2 77 77 N 14 22 30.39 1029 10 16.0934 0 0
2:55 am 02:55 Clear 25 -4.1 17 -8.3 73 73 N 12 19 30.39 1029 10 16.0934 0 0
3:15 am 03:15 Clear 24 -4.3 17 -8.5 73 73 N 13 20 30.39 1029 10 16.0934 0 0
3:35 am 03:35 Clear 24 -4.7 17 -8.6 74 74 NNW 12 19 30.42 1030 10 16.0934 0 0
3:55 am 03:55 Clear 23 -5 16 -8.8 75 75 NNW 12 19 30.42 1030 10 16.0934 0 0
4:15 am 04:15 Clear 22 -5.8 15 -9.2 77 77 NW 9 15 30.48 1032 10 16.0934 0 0
4:35 am 04:35 Clear 18 -7.8 12 -10.9 79 79 W 8 13 30.48 1032 10 16.0934 0 0
4:55 am 04:55 Clear 16 -9 11 -11.5 82 82 WNW 8 13 30.48 1032 10 16.0934 0 0
5:15 am 05:15 Clear 15 -9.2 11 -11.5 84 84 WNW 10 17 30.5 1033 10 16.0934 0 0
5:35 am 05:35 Clear 15 -9.3 11 -11.7 83 83 WNW 10 17 30.5 1033 10 16.0934 0 0
5:55 am 05:55 Clear 14 -10.1 10 -12.5 83 83 WNW 9 15 30.5 1033 10 16.0934 0 0
6:15 am 06:15 Mostly Cloudy 15 -9.6 11 -11.8 84 84 WNW 10 17 30.5 1033 10 16.0934 0 0
6:35 am 06:35 Cloudy 16 -8.8 11 -11.5 81 81 WNW 10 17 30.5 1033 10 16.0934 0 0
6:55 am 06:55 Partly Cloudy 13 -10.6 8 -13.2 81 81 WNW 12 19 30.5 1033 10 16.0934 0 0
7:15 am 07:15 Clear 12 -11 8 -13.5 82 82 WNW 10 17 30.5 1033 10 16.0934 0 0
7:35 am 07:35 Clear 11 -11.7 7 -14 83 83 WNW 9 15 30.53 1034 10 16.0934 0 0
7:55 am 07:55 Clear 11 -11.8 6 -14.2 83 83 WNW 9 15 30.53 1034 10 16.0934 0 0
8:15 am 08:15 Sunny 9 -12.6 5 -14.8 84 84 WNW 8 13 30.53 1034 10 16.0934 0 0
8:35 am 08:35 Sunny 10 -12.4 6 -14.6 84 84 WNW 9 15 30.53 1034 10 16.0934 0 0
8:55 am 08:55 Sunny 10 -12.3 6 -14.6 83 83 WNW 8 13 30.53 1034 10 16.0934 0 0
9:15 am 09:15 Sunny 12 -11 8 -13.5 82 82 WNW 7 11 30.56 1035 10 16.0934 0 0
9:35 am 09:35 Sunny 13 -10.6 8 -13.2 81 81 WNW 7 11 30.53 1034 10 16.0934 0 0
9:55 am 09:55 Sunny 15 -9.5 10 -12.3 80 80 WNW 6 9 30.53 1034 10 16.0934 0 0
10:15 am 10:15 Sunny 17 -8.4 11 -11.5 79 79 WNW 8 13 30.53 1034 10 16.0934 0 0
10:35 am 10:35 Sunny 18 -7.9 12 -11.1 78 78 WNW 7 11 30.56 1035 10 16.0934 0 0
10:55 am 10:55 Sunny 19 -7.1 13 -10.5 77 77 WNW 8 13 30.5 1033 10 16.0934 0 0
11:15 am 11:15 Sunny 20 -6.4 14 -9.9 76 76 WNW 7 11 30.5 1033 10 16.0934 0 0
11:35 am 11:35 Sunny 22 -5.7 15 -9.2 77 77 WNW 7 11 30.5 1033 10 16.0934 0 0
11:55 am 11:55 Sunny 23 -5.2 16 -9 75 75 WNW 7 11 30.48 1032 10 16.0934 0 0
12:15 pm 12:15 Sunny 24 -4.7 17 -8.5 75 75 WNW 6 9 30.45 1031 10 16.0934 0 0
12:35 pm 12:35 Sunny 24 -4.5 17 -8.5 74 74 WNW 7 11 30.45 1031 10 16.0934 0 0
12:55 pm 12:55 Sunny 24 -4.2 17 -8.2 74 74 WNW 7 11 30.45 1031 10 16.0934 0 0
1:15 pm 13:15 Sunny 25 -4 18 -8 74 74 WNW 8 13 30.42 1030 10 16.0934 0 0
1:35 pm 13:35 Sunny 25 -3.8 18 -7.9 73 73 WNW 6 9 30.42 1030 10 16.0934 0 0
1:55 pm 13:55 Sunny 26 -3.5 18 -7.6 74 74 W 6 9 30.42 1030 10 16.0934 0 0
2:15 pm 14:15 Sunny 27 -3 18 -7.6 71 71 WNW 6 9 30.42 1030 10 16.0934 0 0
2:35 pm 14:35 Sunny 27 -2.9 19 -7.5 71 71 WNW 5 7 30.39 1029 10 16.0934 0 0
2:55 pm 14:55 Sunny 27 -3 19 -7.5 71 71 WNW 7 11 30.42 1030 10 16.0934 0 0
3:15 pm 15:15 Sunny 28 -2.5 19 -7.2 70 70 WNW 6 9 30.39 1029 10 16.0934 0 0
3:35 pm 15:35 Sunny 28 -2.5 19 -7.1 71 71 W 7 11 30.39 1029 10 16.0934 0 0
3:55 pm 15:55 Sunny 27 -2.6 19 -7.1 72 72 W 7 11 30.39 1029 10 16.0934 0 0
4:15 pm 16:15 Sunny 27 -3 19 -7.3 73 73 W 5 7 30.42 1030 10 16.0934 0 0
4:35 pm 16:35 Sunny 25 -3.7 17 -8.1 72 72 Calm 30.39 1029 10 16.0934 0 0
4:55 pm 16:55 Sunny 26 -3.6 18 -7.9 72 72 Calm 30.39 1029 10 16.0934 0 0
5:15 pm 17:15 Sunny 25 -4 18 -7.6 76 76 Calm 30.39 1029 10 16.0934 0 0
5:35 pm 17:35 Clear 22 -5.7 16 -9.1 77 77 W 3 6 30.39 1029 10 16.0934 0 0
5:55 pm 17:55 Clear 20 -6.7 15 -9.5 81 81 W 5 7 30.42 1030 10 16.0934 0 0
6:15 pm 18:15 Clear 18 -7.6 13 -10.3 81 81 Calm 30.42 1030 10 16.0934 0 0
6:35 pm 18:35 Clear 15 -9.6 11 -11.5 86 86 Calm 30.45 1031 10 16.0934 0 0
6:55 pm 18:55 Clear 14 -10 10 -12 85 85 Calm 30.45 1031 10 16.0934 0 0
7:15 pm 19:15 Clear 15 -9.5 11 -11.7 84 84 Calm 30.45 1031 10 16.0934 0 0
7:35 pm 19:35 Clear 16 -8.9 13 -10.8 86 86 Calm 30.45 1031 10 16.0934 0 0
7:55 pm 19:55 Clear 14 -10 10 -12 85 85 SW 6 9 30.45 1031 10 16.0934 0 0
8:15 pm 20:15 Clear 13 -10.3 10 -12.4 85 85 Calm 30.45 1031 10 16.0934 0 0
8:35 pm 20:35 Clear 15 -9.6 11 -11.7 85 85 Calm 30.45 1031 10 16.0934 0 0
8:55 pm 20:55 Clear 14 -10 10 -12.1 85 85 Calm 30.45 1031 10 16.0934 0 0
9:15 pm 21:15 Clear 15 -9.2 12 -11 87 87 Calm 30.45 1031 10 16.0934 0 0
9:35 pm 21:35 Clear 16 -9.1 12 -11.2 85 85 Calm 30.45 1031 10 16.0934 0 0
9:55 pm 21:55 Partly Cloudy 17 -8.5 13 -10.5 86 86 Calm 30.42 1030 10 16.0934 0 0
10:15 pm 22:15 Mostly Cloudy 17 -8.1 14 -10.2 85 85 Calm 30.42 1030 10 16.0934 0 0
10:35 pm 22:35 Partly Cloudy 17 -8.2 13 -10.4 84 84 Calm 30.42 1030 10 16.0934 0 0
10:55 pm 22:55 Partly Cloudy 17 -8.2 13 -10.3 85 85 Calm 30.42 1030 10 16.0934 0 0
11:15 pm 23:15 Partly Cloudy 17 -8.5 13 -10.5 86 86 Calm 30.42 1030 10 16.0934 0 0
11:35 pm 23:35 Clear 18 -8 14 -10.1 85 85 Calm 30.42 1030 10 16.0934 0 0
11:55 pm 23:55 Partly Cloudy 17 -8.2 14 -10.2 86 86 Calm 30.42 1030 10 16.0934 0 0

Powered by AerisWeather